Weather History for KBFL - March, 2012

Change the Weather History Date:

Sunday, March 11, 2012

  Actual Average Record
Temperature  
Mean Temperature 57 °F 57 °F  
Max Temperature 70 °F 68 °F 94 °F (1916)
Min Temperature 44 °F 46 °F 32 °F (1935)
Degree Days  
Heating Degree Days 8    
Month to date heating degree days 90  
Since 1 July heating degree days 1771  
Cooling Degree Days 0    
Month to date cooling degree days 0  
Year to date cooling degree days 0  
Growing Degree Days 8 (Base 50)    
Moisture  
Dew Point 39 °F    
Average Humidity 52    
Maximum Humidity 71    
Minimum Humidity 33    
Precipitation  
Precipitation 0.00 in 0.05 in 0.76 in (1965)
Month to date precipitation T 0.47  
Year to date precipitation 0.73 2.87  
Since 1 July precipitation 2.04  
Snow  
Snow 0.00 in - - ()
Month to date snowfall 0.0  
Since 1 July snowfall 0.0  
Snow Depth 0.00 in    
Sea Level Pressure  
Sea Level Pressure 30.01 in    
Wind  
Wind Speed 5 mph (North)    
Max Wind Speed 16 mph    
Max Gust Speed 21 mph    
Visibility 10 miles    
Events      
T = Trace of Precipitation, MM = Missing Value Source: NWS Daily Summary

Daily Weather History Graph

Daily Weather History Graph

Search for Another Location

Airport or City:

Trip Planner

Search our weather history database for the weather conditions in past years. The results will help you decide how hot, cold, wet, or windy it might be!

Date:

Astronomy

Mar. 11, 2012 Rise Set
Actual Time 7:11 AM PDT 7:00 PM PDT
Civil Twilight 6:46 AM PDT 7:26 PM PDT
Nautical Twilight 6:16 AM PDT 7:55 PM PDT
Astronomical Twilight 5:47 AM PDT 8:25 PM PDT
Moon 11:18 PM PDT (3/11) 9:01 AM PDT (3/11)
Length of Visible Light 12h 39m
Length of Day
11h 49m
Waning Gibbous, 84% of the Moon is Illuminated
Mar 11
Waning Gibbous
Mar 14
Last Quarter
Mar 22
New
Mar 30
First Quarter
Apr 6
Full

Hourly Weather History & Observations

Time (PDT) Temp. Dew Point Humidity Pressure Visibility Wind Dir Wind Speed Gust Speed Precip Events Conditions
12:54 AM 51.1 °F 33.1 °F 50% 29.97 in 10.0 mi North 4.6 mph - N/A   Clear
1:54 AM 51.1 °F 32.0 °F 48% 29.97 in 10.0 mi NNE 4.6 mph - N/A   Clear
3:54 AM 48.9 °F 35.1 °F 59% 29.96 in 10.0 mi North 6.9 mph - N/A   Clear
5:54 AM 48.0 °F 39.0 °F 71% 29.99 in 10.0 mi NNE 8.1 mph - N/A   Clear
6:54 AM 46.0 °F 37.9 °F 73% 30.00 in 10.0 mi Calm Calm - N/A   Clear
7:54 AM 46.0 °F 34.0 °F 63% 30.03 in 7.0 mi Calm Calm - N/A   Clear
8:39 AM 50.0 °F 35.6 °F 58% 30.05 in 8.0 mi Calm Calm - N/A   Mostly Cloudy
8:51 AM 50.0 °F 35.6 °F 58% 30.06 in 9.0 mi Calm Calm - N/A   Scattered Clouds
8:54 AM 51.1 °F 36.0 °F 56% 30.05 in 9.0 mi Calm Calm - N/A   Scattered Clouds
9:03 AM 50.0 °F 39.2 °F 66% 30.06 in 9.0 mi Calm Calm - N/A   Mostly Cloudy
9:54 AM 52.0 °F 43.0 °F 71% 30.07 in 10.0 mi Calm Calm - N/A   Overcast
10:17 AM 53.6 °F 42.8 °F 67% 30.07 in 10.0 mi Calm Calm - N/A   Partly Cloudy
10:54 AM 55.9 °F 44.1 °F 64% 30.06 in 10.0 mi Calm Calm - N/A   Clear
11:54 AM 60.1 °F 44.1 °F 55% 30.04 in 10.0 mi Calm Calm - N/A   Clear
12:54 PM 62.1 °F 43.0 °F 50% 30.02 in 10.0 mi Variable 3.5 mph - N/A   Clear
1:54 PM 68.0 °F 42.8 °F 40% 30.00 in 10.0 mi North 9.2 mph - N/A   Clear
2:54 PM 69.1 °F 41.0 °F 36% 29.98 in 10.0 mi NW 9.2 mph 18.4 mph N/A   Clear
3:54 PM 69.1 °F 39.9 °F 35% 29.96 in 10.0 mi NW 11.5 mph - N/A   Clear
4:54 PM 68.0 °F 41.0 °F 37% 29.96 in 10.0 mi NNW 5.8 mph - N/A   Clear
5:54 PM 66.0 °F 39.9 °F 38% 29.97 in 10.0 mi NW 9.2 mph - N/A   Clear
6:54 PM 63.0 °F 39.9 °F 43% 29.97 in 10.0 mi NNW 6.9 mph - N/A   Clear
7:54 PM 60.8 °F 39.2 °F 45% 29.98 in 10.0 mi North 4.6 mph - N/A   Clear
8:54 PM 57.0 °F 37.0 °F 47% 29.98 in 10.0 mi Calm Calm - N/A   Clear
9:54 PM 55.0 °F 37.0 °F 51% 29.99 in 10.0 mi Calm Calm - N/A   Clear
10:54 PM 54.0 °F 37.0 °F 53% 30.00 in 10.0 mi NNE 4.6 mph - N/A   Clear
11:54 PM 54.0 °F 39.0 °F 57% 30.00 in 10.0 mi ENE 3.5 mph - N/A   Clear
12:54 AM 53.1 °F 37.9 °F 57% 30.00 in 10.0 mi Calm Calm - N/A   Clear